This demonstration page uses our WeatherBlox Daily Observations layout. Learn more.

Left ArrowRight Arrow

40.92501, -98.34201

Hourly Observations for June 21, 2020

Temp ( °F °C ) Dew Point ( °F °C ) Humidity (%) Winds ( mph kmh ) Pressure ( in mb ) Visibility ( mi km ) Precip ( " mm )
12:53 am 00:53 Clear 70 21.1 63 17.2 79 79 S 3 6 29.85 1011 10 16 0.00 0.00
1:53 am 01:53 Clear 66 18.9 61 16.1 84 84 Calm 29.85 1011 7 11 0.00 0.00
2:53 am 02:53 Clear 65 18.3 61 16.1 87 87 ESE 7 11 29.86 1011 8 13 0.00 0.00
3:53 am 03:53 Clear 66 18.9 61 16.1 84 84 SE 7 11 29.85 1011 8 13 0.00 0.00
4:53 am 04:53 Clear 65 18.3 61 16.1 87 87 S 3 6 29.84 1010 8 13 0.00 0.00
5:53 am 05:53 Clear with Mist and Fog 65 18.3 61 16.1 87 87 S 5 7 29.83 1010 5 8 0.00 0.00
6:53 am 06:53 Sunny 66 18.9 62 16.7 87 87 S 7 11 29.83 1010 10 16 0.00 0.00
7:53 am 07:53 Sunny 72 22.2 61 16.1 68 68 SSW 12 19 29.82 1010 10 16 0.00 0.00
8:53 am 08:53 Mostly Cloudy 75 23.9 60 15.6 60 60 SSW 15 24 29.82 1010 10 16 0.00 0.00
9:53 am 09:53 Mostly Sunny 80 26.7 58 14.4 47 47 SW 16 26 29.81 1009 10 16 0.00 0.00
10:53 am 10:53 Sunny 83 28.3 52 11.1 34 34 S 17 28 29.80 1009 10 16 0.00 0.00
11:53 am 11:53 Cloudy with Light Rain 80 26.7 54 12.2 41 41 S 17 28 29.81 1010 10 16 0.00 0.00
12:53 pm 12:53 Cloudy 78 25.6 57 13.9 48 48 S 18 30 29.82 1010 10 16 0.00 0.00
1:53 pm 13:53 Mostly Cloudy 78 25.6 58 14.4 50 50 S 16 26 29.82 1010 10 16 0.00 0.00
2:53 pm 14:53 Sunny 82 27.8 55 12.8 40 40 S 18 30 29.80 1009 10 16 0.00 0.00
3:53 pm 15:53 Sunny 85 29.4 56 13.3 37 37 SSE 22 35 29.75 1008 10 16 0.00 0.00
4:53 pm 16:53 Sunny 86 30 58 14.4 39 39 S 16 26 29.74 1007 10 16 0.00 0.00
5:53 pm 17:53 Sunny 83 28.3 59 15 44 44 S 21 33 29.76 1008 10 16 0.00 0.00
6:53 pm 18:53 Sunny 77 25 57 13.9 50 50 S 18 30 29.73 1007 10 16 0.00 0.00
7:53 pm 19:53 Mostly Cloudy 74 23.3 58 14.4 57 57 SW 15 24 29.78 1009 10 16 0.00 0.00
8:53 pm 20:53 Sunny 71 21.7 60 15.6 68 68 WSW 18 30 29.76 1008 10 16 0.00 0.00
9:53 pm 21:53 Clear 70 21.1 60 15.6 71 71 W 16 26 29.76 1008 10 16 0.00 0.00
10:53 pm 22:53 Clear 70 21.1 61 16.1 73 73 WNW 14 22 29.80 1009 10 16 0.00 0.00
11:53 pm 23:53 Clear 69 20.6 61 16.1 76 76 WNW 13 20 29.81 1010 10 16 0.00 0.00

Powered by AerisWeather